TimePST,TemperatureF,Dew PointF,Humidity,Sea Level PressureIn,VisibilityMPH,Wind Direction,Wind SpeedMPH,Gust SpeedMPH,PrecipitationIn,Events,Conditions,WindDirDegrees,DateUTC
12:53 AM,41.0,36.0,82,29.99,10.0,SSE,10.4,-,N/A,,Clear,150,2013-03-07 08:53:00
1:53 AM,41.0,36.0,82,30.00,10.0,SSE,8.1,-,N/A,,Partly Cloudy,150,2013-03-07 09:53:00
2:53 AM,37.0,33.1,86,30.00,10.0,South,6.9,-,N/A,,Partly Cloudy,170,2013-03-07 10:53:00
3:53 AM,36.0,33.1,89,30.01,10.0,Calm,Calm,-,N/A,,Clear,0,2013-03-07 11:53:00
4:53 AM,34.0,32.0,92,30.02,10.0,Calm,Calm,-,N/A,,Partly Cloudy,0,2013-03-07 12:53:00
5:53 AM,32.0,30.9,96,30.04,9.0,Calm,Calm,-,N/A,,Clear,0,2013-03-07 13:53:00
6:53 AM,33.1,30.9,92,30.05,1.2,Calm,Calm,-,N/A,,Clear,0,2013-03-07 14:53:00
7:05 AM,32.0,30.2,93,30.05,3.0,North,3.5,-,N/A,,Clear,360,2013-03-07 15:05:00
7:53 AM,36.0,34.0,93,30.06,9.0,Calm,Calm,-,N/A,,Clear,0,2013-03-07 15:53:00
8:53 AM,41.0,37.0,86,30.07,10.0,NW,3.5,-,N/A,,Clear,320,2013-03-07 16:53:00
9:53 AM,44.1,39.0,82,30.08,10.0,Calm,Calm,-,N/A,,Clear,0,2013-03-07 17:53:00
10:53 AM,48.0,39.0,71,30.07,10.0,SW,3.5,-,N/A,,Clear,220,2013-03-07 18:53:00
11:53 AM,51.1,37.0,59,30.07,10.0,Calm,Calm,-,N/A,,Clear,0,2013-03-07 19:53:00
12:53 PM,53.1,36.0,52,30.04,10.0,ENE,4.6,-,N/A,,Clear,70,2013-03-07 20:53:00
1:53 PM,54.0,33.1,45,30.03,10.0,Calm,Calm,-,N/A,,Clear,0,2013-03-07 21:53:00
2:53 PM,55.0,33.1,43,30.02,10.0,East,3.5,-,N/A,,Clear,80,2013-03-07 22:53:00
3:53 PM,55.9,33.1,42,30.01,10.0,NNE,3.5,-,N/A,,Clear,20,2013-03-07 23:53:00
4:53 PM,54.0,32.0,43,30.01,10.0,NNW,3.5,-,N/A,,Clear,330,2013-03-08 00:53:00
5:53 PM,52.0,32.0,47,30.02,10.0,NW,3.5,-,N/A,,Clear,310,2013-03-08 01:53:00
6:53 PM,44.1,35.1,71,30.03,10.0,SSW,3.5,-,N/A,,Clear,210,2013-03-08 02:53:00
7:53 PM,45.0,37.0,74,30.04,10.0,NW,3.5,-,N/A,,Clear,320,2013-03-08 03:53:00
8:53 PM,42.1,36.0,79,30.05,10.0,WNW,4.6,-,N/A,,Clear,300,2013-03-08 04:53:00
9:53 PM,39.9,35.1,83,30.05,10.0,Calm,Calm,-,N/A,,Clear,0,2013-03-08 05:53:00
10:53 PM,35.1,32.0,89,30.06,10.0,Calm,Calm,-,N/A,,Clear,0,2013-03-08 06:53:00
11:53 PM,35.1,33.1,92,30.05,10.0,Calm,Calm,-,N/A,,Clear,0,2013-03-08 07:53:00